NOAA 16 DEB, 41068

Orbit data source: Space-Track

NOAA 16 DEB, 41068 is space debris in SSO originally from a launch on Thu, 21 Sep 2000 UTC launched from the Air Force Western Test Range (AFWTR). Debris objects in space refer to the collection of defunct objects orbiting the Earth. Examples of debris include non-operational satellites, rocket bodies, and fragments generated from explosions, collisions, or faulty payload assembly.

Loading next visibility...
Identifier
41068, 2000-055AB
Orbit
SSO
Country
Flag of USUS
Related business
Manufacturer
Unknown
Mission
Spacecraft
Bus & Motor
Unknown
Mass
Unknown
Launch date (UTC)
2000-09-21 (25 years ago)
Launch vehicle
Unknown
Launch site
Air Force Western Test Range (AFWTR)
Object type
Payload
Rocket body
Debris
Shape & HBR
Unknown shape, 0.1 m
Radar Cross Section
Small (<0.1 m²)

Expand to show TLE details & history
Last TLE update: 7 hours ago

TLE from 7 hours ago
0 NOAA 16 DEB
1 41068U 00055AB  26034.46271130  .00001797  00000-0  50049-3 0  9993
2 41068  99.1574   4.1844 0141588 159.8502 200.8352 14.42014952532860
Epoch: 2026-02-03T11:06Z
TLE epoch observation values (Epoch: 2026-02-03T11:06:18.256Z)
Latitude
-0.0001°
Longitude
63.96506°
Altitude
849.327 km
Speed
7.379 km/s
True Right ascension
00h 16m 44s
True Declination
0° 00' 00"
Sunlit
Object was in daylight at epoch
Visualization orbit readout
Latitude
Unknown
Longitude
Unknown
Altitude
Unknown
Speed
Unknown
Apparent Right ascension
Unknown
Apparent Declination
Unknown
Sunlit
N/A
Visualization observer readout
Local Sidereal Time
19:59:30
Azimuth
Unknown
Elevation
Unknown
Doppler factor
Unknown
Orbital elements
Apogee altitude
849.911 km
Perigee altitude
648.088 km
Semi-major axis
7,127.136 km
Eccentricity
0.01416
Inclination
99.1574°
RAAN
4.1844°
Arg. of periapsis
159.8502°
True anomaly
200.26752°
Mean anomaly
200.8352°
Eccentric anomaly
200.55043°
Mean motion
3.6072 °/min
Orbital period
99.8 mins
BSTAR
0.00050049
Loading maneuver chart data...
Computing Atmospheric mass density...
Loading historical data...
Loading historical data...
Loading historical data...
Loading historical data...
Loading historical data...
Loading historical data...
Loading historical data...

Documentation

Showing up to 5 results
|